Regional Weather Roundup
Issued by NWS

Home | Current Version | Previous Version | Graphics & Text | Print | Product List | Glossary On
Versions: 1 2 3 4 5 6 7 8 9 10 11 12 13 14 15 16 17 18 19 20 21 22 23 24 25 26 27 28 29 30 31 32 33 34 35 36 37 38 39 40 41 42 43 44 45 46 47 48 49 50
000
ASUS43 KTOP 011008
RWRKS

WEATHER ROUNDUP FOR KANSAS
NATIONAL WEATHER SERVICE GOODLAND KS
500 AM CDT MON SEP 01 2014

NOTE:  "FAIR" INDICATES FEW OR NO CLOUDS BELOW 12,000 FEET WITH NO
SIGNIFICANT WEATHER AND/OR OBSTRUCTIONS TO VISIBILITY.

KSZ001>006-013>018-027>032-041>047-011100-
NORTHWEST KANSAS

CITY           SKY/WX    TMP DP  RH WIND       PRES   REMARKS
GOODLAND       CLEAR     52  50  93 NW5       29.99R
HAYS           PTCLDY    61  55  82 SW3       29.85S
HILL CITY      CLEAR     61  57  87 W9        29.88R
RUSSELL        PTCLDY    62  61  96 SW5       29.83R
$$

KSZ061>065-074>080-084>089-011100-
SOUTHWEST KANSAS

CITY           SKY/WX    TMP DP  RH WIND       PRES   REMARKS
DODGE CITY     CLEAR     61  58  90 N5        29.85R
ELKHART          N/A     62  52  70 N8          N/A
GARDEN CITY    CLEAR     61  59  93 N15       29.88R
GREAT BEND     CLEAR     64  59  82 CALM      29.84R
LIBERAL        CLEAR     64  55  72 N8        29.87R
PRATT          CLEAR     64  59  82 E14G20    29.84S
$$

KSZ066>073-081>083-090>101-011100-
SOUTHEAST KANSAS

CITY           SKY/WX    TMP DP  RH WIND       PRES   REMARKS
CHANUTE        HVY RAIN  64  62  93 E12       29.92F FOG
COFFEYVILLE    LGT RAIN  66  66 100 VRB5      29.91S
HUTCHINSON     CLOUDY    65  61  87 SE10      29.85R
MEDICINE LODGE   N/A     68  61  78 E14G23    29.81R
NEWTON         CLOUDY    63  55  77 SE13      29.89F
PARSONS        LGT RAIN  65  62  90 VRB5      29.93S
WICHITA INTL   CLOUDY    67  60  78 E12       29.86S
WICHITA JABRA  CLOUDY    64  63  96 E7        29.87F
WICHITA MCCONL CLOUDY    65  64  94 E15       29.86R
WINFIELD       MOCLDY    67  61  81 E14       29.87F
$$

KSZ007>012-019>026-033>040-048>060-102>105-011100-
NORTHEAST KANSAS

CITY           SKY/WX    TMP DP  RH WIND       PRES   REMARKS
CONCORDIA      PTCLDY    63  62  97 SW7       29.80R
EMPORIA        TSTM      62  62 100 S18G28    29.85F
LAWRENCE       CLOUDY   N/A N/A N/A S14       29.78R
MANHATTAN      CLOUDY    66  32  28 SW8       29.81R
OLATHE IND     LGT RAIN  65  64  97 SE26G33   29.75F
OLATHE EXE     LGT RAIN  65  64  97 SE18G24   29.79F
SALINA         CLOUDY    63  61  93 S5        29.81F
TOPEKA BILLARD CLOUDY    68  66  93 S14G20    29.80F
TOPEKA FORBES  CLOUDY    67  64  90 S13G22    29.80R
$$



USA.gov is the U.S. government's official web portal to all federal, state and local government web resources and services.